www.pogodaiklimat.ru

Погода и климат >> Архив погоды >> Россия >> Камчатский край >> Озерная


ПОГОДА в Озерной

  • Прогноз погоды в Озерной
  • Монитор погоды в Озерной

АРХИВ ПОГОДЫ в Озерной

Время (UTC), дата Ветер
(напр.,м/с)
 
Видим.   Явления Облачность Т
(С)
Тd
(С)
f
(%)
Тe
(С)
Тes
(С)
Комфортность P
(гПа)
Po
(гПа)
Тmin
(С)
Tmax
(С)
R
(мм)
R24
(мм)
S
(см)
09 15.02 З 15-19
{23}
4000 м слаб. ливневой снег {метель} 8/8 300 м
[Cb cap]
-7.0 -8.8 87 -19 -19 993.1 989.5 -6.2 3
12 15.02 З 16-20
{20}
4000 м слаб. ливневой снег {метель} 9/9 300 м
[Cb cap]
-6.7 -10.0 77 -19 -19 993.5 989.9
15 15.02 З 13-17
{20}
4000 м слаб. ливневой снег {метель} 8/8 300 м
[Cb cap]
-7.0 -11.0 73 -18 -18 993.6 990.0
18 15.02 З 16-21
{21}
500 м сильная метель {ливн. осадки} ?/? -8.1 -9.6 89 -20 -20 993.7 990.0
21 15.02 З 11-15
{21}
20 км позёмок 9/9 600 м
[Cb calv]
-7.8 -11.5 75 -18 -18 993.8 990.2 -8.4 0.2 21
00 16.02 З 11-16
{17}
1000 м метель {ливн. осадки} ?/? -7.8 -9.5 88 -19 -19 993.6 990.0
03 16.02 З 12-15
{16}
1000 м ливневой снег {метель} 10/10 200 м
[Cb cap]
-8.0 -9.1 92 -19 -19 992.8 989.2
06 16.02 ЮЗ 10-13
{15}
4000 м слаб. ливневой снег {метель} 9/9 300 м
[Cb cap]
-8.4 -10.6 84 -19 -19 992.7 989.1
09 16.02 З 7-10
{14}
4000 м слаб. ливневой снег {метель} 9/9 300 м
[Cb cap]
-8.7 -11.5 80 -18 -18 992.9 989.3 -7.2 1
12 16.02 З 5
{11}
4000 м слаб. ливневой снег {метель} 10/10 300 м
[Cb cap]
-9.2 -11.3 85 -17 -17 992.9 989.3
15 16.02 З 6
{14}
20 км в посл. час ливневой снег {метель} 8/8 600 м
[Cb calv]
-8.9 -13.8 68 -17 -17 992.8 989.2
18 16.02 З 6
{13}
20 км в посл. час ливневой снег {метель} 9/9 600 м
[Cb calv]
-8.8 -12.7 73 -17 -17 992.6 989.0
21 16.02 В 4
{10}
10 км {ливн. осадки, метель} 6/4 600 м
[Cb calv Ci fib]
-12.3 -13.7 89 -19 -19 992.9 989.3 -13.0 0.4 20
00 17.02 СВ 3 1000 м слаб. ливневой снег {метель} 10/10 100 м
[Cb cap]
-10.5 -11.8 90 -16 -16 993.7 990.0
03 17.02 В 4 4000 м слаб. ливневой снег 10/10 300 м
[Cb cap]
-9.2 -10.3 92 -16 -16 993.1 989.5
06 17.02 ЮВ 2 20 км в посл. час ливневой снег 9/8 600 м
[Cb calv Ci fib]
-8.6 -10.4 87 -13 -13 993.6 990.0
09 17.02 В 4 4000 м слаб. ливневой снег 9/9 300 м
[Cb cap]
-11.0 -12.5 89 -18 -18 994.9 991.2 -8.3 2
12 17.02 В 4 10 км {ливн. осадки} 9/9 600 м
[Cb calv]
-13.3 -14.7 89 -21 -21 995.9 992.2
15 17.02 В 3 10 км в посл. час ливневой снег 9/9 600 м
[Cb calv]
-14.1 -15.5 89 -21 -21 996.7 992.9
18 17.02 В 3 4000 м слаб. ливневой снег 10/10 300 м
[Cb cap]
-13.6 -15.0 89 -20 -20 997.1 993.4
21 17.02 СВ 5 20 км {ливн. осадки} 9/9 600 м
[Cb calv]
-11.4 -13.1 87 -19 -19 998.2 994.5 -14.8 0.5 24
00 18.02 СВ 5 50 км слаб. ливневой снег 9/6 300 м
[Cb cap Ac trans]
-9.3 -12.7 76 -17 -17 999.5 995.9
03 18.02 СВ 3 20 км слаб. ливневой снег 9/8 300 м
[Cb cap Ci fib]
-7.8 -11.4 75 -13 -13 1000.1 996.5
06 18.02 В 5 50 км {ливн. осадки} 9/0
[Ci fib]
-8.4 -12.6 72 -16 -16 1001.4 997.7
09 18.02 СВ 5 20 км 3/0
[Ci fib]
-11.7 -15.5 73 -20 -20 1003.8 1000.1 -7.7 0.0
12 18.02 В 4 20 км ясно -17.6 -19.6 84 -26 -26 1006.1 1002.3
15 18.02 В 4 20 км {ливн. осадки} 6/6 600 м
[Cb calv]
-17.0 -19.1 84 -25 -25 1006.8 1003.0
18 18.02 В 4 10 км в посл. час ливневой снег 9/9 600 м
[Cb calv]
-15.7 -17.5 86 -24 -24 1008.3 1004.5
21 18.02 В 4 2000 м слаб. ливневой снег 10/10 100 м
[Cb cap]
-14.9 -16.4 88 -23 -23 1010.4 1006.6 -18.0 3 25
00 19.02 З 3 10 км {ливн. осадки} 9/9 600 м
[Cb calv]
-6.7 -9.1 83 -12 -12 1011.6 1007.9
03 19.02 ЮЗ 7-10
{10}
10 км позёмок 8/8 600 м
[Cb calv]
-6.5 -11.1 70 -15 -15 1012.1 1008.4
06 19.02 З 6
{10}
10 км в посл. час ливневой снег {метель} 9/9 600 м
[Cb calv]
-6.1 -10.4 72 -14 -14 1012.1 1008.5
09 19.02 З 6
{11}
10 км в посл. час ливневой снег 8/8 600 м
[Cb calv]
-7.1 -9.8 81 -15 -15 1013.0 1009.3 -5.8 1
12 19.02 СЗ 4 4000 м слаб. ливневой снег 9/9 300 м
[Cb cap]
-7.7 -8.9 91 -15 -15 1012.9 1009.2
15 19.02 В 3 20 км {ливн. осадки} 6/6 600 м
[Cb calv]
-13.5 -14.9 89 -20 -20 1012.7 1008.9
18 19.02 В 4 20 км {ливн. осадки} 9/9 600 м
[Cb calv]
-13.9 -15.3 89 -21 -21 1012.3 1008.5
21 19.02 В 4 4000 м слаб. ливневой снег 9/9 300 м
[Cb cap]
-11.9 -13.1 91 -19 -19 1012.2 1008.4 -14.6 1 30
00 20.02 В 2 4000 м слаб. ливневой снег 10/10 300 м
[Cb cap]
-9.7 -10.8 92 -14 -14 1012.1 1008.4
03 20.02 В 1 4000 м слаб. ливневой снег 9/9 300 м
[Cb cap]
-6.7 -7.8 92 -9 -9 1011.1 1007.5
06 20.02 СЗ 3 10 км слаб. ливневой снег 9/9 300 м
[Cb cap]
-6.9 -8.8 86 -13 -13 1010.2 1006.5
09 20.02 В 3 10 км слаб. ливневой снег 9/9 300 м
[Cb cap]
-8.8 -9.8 92 -15 -15 1010.4 1006.7 -5.8 2
12 20.02 СВ 6 20 км {ливн. осадки} 8/8 600 м
[Cb calv]
-12.5 -13.8 90 -21 -21 1009.9 1006.1
15 20.02 В 4 20 км 9/9 600 м
[Sc]
-14.9 -17.0 84 -23 -23 1009.4 1005.6
18 20.02 В 4 20 км 9/9 600 м
[Sc]
-18.1 -19.7 87 -27 -27 1008.9 1005.0
21 20.02 В 2 50 км ясно -21.0 -23.0 84 -27 -27 1008.9 1005.0 -21.0 0.0 34
00 21.02 СВ 2 50 км ясно -12.9 -16.8 73 -18 -13 1008.6 1004.8 -21.0
03 21.02 С 3 50 км ясно -9.7 -15.4 63 -15 -12 1007.7 1004.0
06 21.02 С 2 50 км 4/0
[Ac trans]
-10.6 -16.9 60 -15 -15 1007.9 1004.2
09 21.02 СВ 4 20 км ясно -12.0 -18.2 60 -19 -19 1008.2 1004.5 -9.3
12 21.02 В 4 20 км 3/3 600 м
[Sc]
-15.4 -20.8 63 -23 -23 1008.2 1004.4
15 21.02 В 5 20 км ясно -17.4 -20.5 77 -27 -27 1007.3 1003.5
18 21.02 В 3 1000 м ливневой снег 10/10 200 м
[Cb cap]
-13.9 -15.6 87 -20 -20 1006.3 1002.6
21 21.02 В 3 20 км {ливн. осадки} 9/8 600 м
[Sc Ci fib]
-11.5 -12.7 91 -17 -17 1005.9 1002.2 -18.5 1 31
00 22.02 В 3 50 км {ливн. осадки} 9/0
[Ci fib]
-11.9 -13.7 86 -18 -15 1005.5 1001.8
03 22.02 В 1 50 км 9/3 600 м
[Sc Cs]
-5.6 -10.1 71 -8 -5 1004.3 1000.7
06 22.02 В 2 50 км 8/3 600 м
[Sc Ac trans Ci fib]
-10.1 -14.3 71 -15 -14 1003.6 999.9

 

Местоположение метеостанции Озерная (Камчатский край, Россия): широта 51.48 долгота 156.40 высота над уровнем моря 28 м.

В архиве по умолчанию представлена погода в Озерной за последнюю неделю. Архивные данные за месяц целиком и за предыдущие месяцы, начиная с января 2011 года, Вы можете получить, выбрав интересующий диапазон дат из раскрывающегося списка и нажав кнопку "Ввод!".


*Определитесь, кто Вы:
робот инопланетянин человек

Внимание! Время в таблицах - всемирное. Для получения местного времени необходимо прибавить поправку, которая равна 12 ч.

Смотрите также архив погоды в соседних городах и на ближайших метеорологических станциях:

Погода на Мысе Лопатка (Камчатский край, Россия) (69 км)
Погода в Северо-Курильске (Сахалинская область, Россия) (91 км)
Погода в Водопадной (Камчатский край, Россия) (117 км)
Погода в Большерецке (Камчатский край, Россия) (150 км)
Погода в Начиках (Камчатский край, Россия) (203 км)
Погода в Петропавловск-Камчатском (Камчатский край, Россия) (215 км)
Погода в Сосновке (Камчатский край, Россия) (220 км)
Погода в Петропавловском Маяке (Камчатский край, Россия) (221 км)
Погода в Петропавловск-Камч. 2 (Камчатский край, Россия) (228 км)
Погода в Соболево (Камчатский край, Россия) (315 км)

Пояснения к столбцам:

Ветер - указаны скорость ветра в м/с - средняя за 10 мин, порывы в срок и между сроками (в фигурных скобках) и направление, откуда дует ветер: С - северный, СВ - северо-восточный, В - восточный, ЮВ - юго-восточный, Ю - южный, ЮЗ - юго-западный, З - западный, СЗ - северо-западный.
Видимость - горизонтальная дальность видимости в метрах или километрах. При видимости от 1 до 10 км при отсутствии осадков обычно наблюдается дымка, при ухудшении видимости до 1 км и менее - туман. В сухую погоду видимость может ухудшаться дымом, пылью или мглою.
Явления - указаны атмосферные явления, наблюдавшиеся в срок или в последний час перед сроком; фигурными скобками обозначены явления, наблюдавшиеся между сроками (за 1-3 часа до срока); квадратными скобками обозначены град или гололедные отложения с указанием их диаметра в мм.
Облачность - указаны через наклонную черту общая и нижняя облачность в баллах и высота нижней границы облаков в метрах; квадратными скобками обозначены формы облаков: Ci - перистые, Cs - перисто-слоистые, Cc - перисто-кучевые, Ac - высококучевые, As - высокослоистые, Sc - слоисто-кучевые, Ns - слоисто-дождевые, Cu - кучевые, Cb - кучево-дождевые. Подробнее классификацию облаков см. в Атласе облаков (PDF).
T - Температура воздуха - температура, измеренная на высоте 2 м над землей.
Td - Температура точки росы - температура, при понижении до которой содержащийся в воздухе водяной пар достигнет насыщения.
f - Относительная влажность воздуха - влажноcть воздуха, измеренная на высоте 2 м над землей.
Te - Эффективная температура - температура, которую ощущает одетый по сезону человек в тени. Характеристика душности погоды. При расчете учитывается влияние влажности воздуха и скорости ветра на теплоощущения человека.
Tes - Эффективная температура на солнце - температура, которую ощущает человек, с поправкой на солнечный нагрев. Характеристика знойности погоды. Зависит от высоты солнца над горизонтом, облачности и скорости ветра. Ночью, в пасмурную погоду, а также при ветре 12 м/с и более поправка равна нулю.
P - Атмосферное давление - приведенное к уровню моря атмосферное давление.
Po - Атмосферное давление - измеренное на уровне метеостанции атмосферное давление.
Tmin - Минимальная температура - минимум температуры воздуха на высоте 2 м над землей.
Tmax - Максимальная температура - максимум температуры воздуха на высоте 2 м над землей.
R - Количество осадков - Количество выпавших осадков за период времени, мм. При наведении курсора мыши на число - период времени, за который выпало указанное количество осадков.
R24 - Количество осадков - Количество выпавших осадков за 24 часа, мм.
S - Снежный покров - Высота снежного покрова, см. При наведении курсора мыши на число - состояние снежного покрова и степень покрытия местности в баллах.